{"data":{"norad_id":65647,"epoch":"2026-09-20T00:57:40.992192Z","epoch_age_seconds":148528,"freshness":"FRESH","line1":"1 65647U 25210AB  26263.04005778  .00016223  00000+0  49019-3 0  9997","line2":"2 65647  53.1568 118.1885 0001347  89.9254 270.1903 15.34403583 57574","mean_motion":15.34403583,"eccentricity":0.0001347,"inclination_deg":53.1568,"raan_deg":118.1885,"arg_perigee_deg":89.9254,"mean_anomaly_deg":270.1903,"bstar":0.00049019,"rev_number":5757,"period_min":93.847538936567,"perigee_km":461.77113105086,"apogee_km":463.61405054263,"semimajor_km":6840.8295907967,"source":"CELESTRAK","updated_at":"2026-09-21T09:00:35.678075Z"}}